EW6715 Weather Reports


time (UTC)temp
C
wind
direction
speed
KPH
gust
KPH
rain 1hr
cm
rain 24hr
cm
rain mn
cm
humidity
%
barometer
mb
20260510060045 13 0.0 0.0 0.00 0.03 0.00 55 1010.3
20260510054556 13 0.0 0.0 0.00 0.03 0.00 62 1010.2
20260510053043 14 0.0 0.0 0.00 0.03 0.00 58 1010.3
20260510051547 14 0.0 0.0 0.00 0.03 0.00 68 1010.4
20260510050052 15 0.0 0.0 0.00 0.03 0.00 66 1010.3
20260510044547 15 0.0 0.0 0.00 0.03 0.00 68 1010.1
20260510043043 15 0.0 0.0 0.00 0.03 0.00 72 1010.3
20260510041602 15 0.0 0.0 0.00 0.03 0.00 72 1010.4
20260510040050 15 0.0 0.0 0.00 0.03 0.00 73 1010.3
20260510034553 15 0.0 0.0 0.00 0.03 0.03 75 1010.3
20260510033051 16 0.0 0.0 0.00 0.03 0.03 77 1010.1
20260510031552 16 0.0 0.0 0.00 0.03 0.03 77 1010.2
20260510030051 16 0.0 0.0 0.00 0.03 0.03 77 1010.1
20260510024601 16 0.0 0.0 0.00 0.03 0.03 77 1010.1
20260510023046 16 0.0 0.0 0.00 0.03 0.03 77 1009.9
20260510021548 16 0.0 0.0 0.00 0.03 0.03 77 1009.9
20260510020046 16 0.0 0.0 0.00 0.03 0.03 76 1009.7
20260510014610 17 0.0 0.0 0.00 0.03 0.03 76 1009.7
20260510013101 17 0.0 0.0 0.00 0.03 0.03 75 1009.4
20260510011546 17 0.0 0.0 0.00 0.03 0.03 74 1009.0
20260510010046 17 0.0 0.0 0.00 0.03 0.03 73 1009.0
20260510004550 18 0.0 0.0 0.00 0.03 0.03 72 1008.9
20260510003048 18 0.0 0.0 0.00 0.03 0.03 71 1008.9
20260510001544 18 0.0 0.0 0.00 0.03 0.03 70 1008.8
20260510000046 19 0.0 0.0 0.00 0.03 0.03 69 1008.6
20260509234541 19 0.0 0.0 0.00 0.03 0.03 68 1008.4
20260509233052 20 0.0 0.0 0.00 0.03 0.03 66 1008.4
20260509231555 20 0.0 0.0 0.00 0.03 0.03 66 1008.5
20260509230047 20 0.0 0.0 0.00 0.03 0.03 64 1008.3
20260509224544 21 0.0 0.0 0.00 0.03 0.03 63 1008.3
20260509223047 21 0.0 0.0 0.00 0.03 0.03 61 1008.2
20260509221545 21 0.0 0.0 0.00 0.03 0.03 59 1008.4
20260509220045 21 0.0 0.0 0.00 0.03 0.03 61 1008.3
20260509214558 21 0.0 0.0 0.00 0.03 0.03 60 1008.3
20260509213046 21 0.0 0.0 0.00 0.03 0.03 62 1008.3
20260509211554 21 0.0 0.0 0.00 0.03 0.03 63 1008.3
20260509210058 21 0.0 0.0 0.00 0.03 0.03 64 1008.3
20260509204550 21 0.0 0.0 0.00 0.03 0.03 64 1008.3
20260509203046 20 0.0 0.0 0.00 0.03 0.03 65 1008.0
20260509201546 20 0.0 0.0 0.00 0.03 0.03 68 1008.2
20260509200049 19 0.0 0.0 0.00 0.03 0.03 75 1008.5
20260509194546 18 0.0 0.0 0.00 0.03 0.03 76 1008.7
20260509193047 18 0.0 0.0 0.00 0.03 0.03 67 1008.9
20260509191547 18 0.0 0.0 0.03 0.03 0.03 64 1009.3
20260509190050 18 0.0 0.0 0.03 0.03 0.03 60 1009.2
20260509184547 18 0.0 0.0 0.03 0.03 0.03 74 1009.2
20260509183048 19 0.0 0.0 0.03 0.03 0.03 74 1009.6
20260509181546 20 0.0 0.0 0.00 0.00 0.00 62 1009.7
20260509180044 20 0.0 0.0 0.00 0.00 0.00 61 1010.0
20260509174542 20 0.0 0.0 0.00 0.00 0.00 60 1010.0
20260509173114 20 0.0 0.0 0.00 0.00 0.00 60 1010.0
20260509171548 20 0.0 0.0 0.00 0.00 0.00 59 1010.1
20260509170055 20 0.0 0.0 0.00 0.00 0.00 63 1010.2
20260509164544 19 0.0 0.0 0.00 0.00 0.00 64 1010.2
20260509163045 18 0.0 0.0 0.00 0.00 0.00 66 1010.4
20260509161544 18 0.0 0.0 0.00 0.00 0.00 64 1010.4
20260509160049 18 0.0 0.0 0.00 0.00 0.00 65 1010.4
20260509154548 18 0.0 0.0 0.00 0.00 0.00 66 1010.7
20260509153045 17 0.0 0.0 0.00 0.00 0.00 67 1010.9
20260509151555 17 0.0 0.0 0.00 0.00 0.00 68 1010.8
20260509150051 16 0.0 0.0 0.00 0.00 0.00 68 1010.9
20260509144541 16 0.0 0.0 0.00 0.00 0.00 70 1011.2
20260509143057 16 0.0 0.0 0.00 0.00 0.00 72 1011.4
20260509141550 15 0.0 0.0 0.00 0.00 0.00 72 1011.7
20260509140046 15 0.0 0.0 0.00 0.00 0.00 72 1011.5
20260509134547 15 0.0 0.0 0.00 0.00 0.00 72 1011.6
20260509133047 14 0.0 0.0 0.00 0.00 0.00 72 1011.6
20260509131556 14 0.0 0.0 0.00 0.00 0.00 71 1011.6
20260509130122 14 0.0 0.0 0.00 0.00 0.00 72 1011.5
20260509124543 14 0.0 0.0 0.00 0.00 0.00 72 1011.6
20260509123116 14 0.0 0.0 0.00 0.00 0.00 71 1011.5
20260509121549 13 0.0 0.0 0.00 0.00 0.00 71 1011.5
20260509120049 13 0.0 0.0 0.00 0.00 0.00 70 1011.5
20260509114618 13 0.0 0.0 0.00 0.00 0.00 70 1011.5
20260509113051 13 0.0 0.0 0.00 0.00 0.00 71 1011.5
20260509111545 13 0.0 0.0 0.00 0.00 0.00 69 1011.4
20260509110057 13 0.0 0.0 0.00 0.00 0.00 66 1011.3
20260509104541 13 0.0 0.0 0.00 0.00 0.00 65 1011.4
20260509103044 13 0.0 0.0 0.00 0.00 0.00 64 1011.2
20260509101557 13 0.0 0.0 0.00 0.00 0.00 64 1010.9
20260509100051 13 0.0 0.0 0.00 0.00 0.00 64 1010.9
20260509094546 13 0.0 0.0 0.00 0.00 0.00 63 1010.9
20260509093046 13 0.0 0.0 0.00 0.00 0.00 63 1010.9
20260509091552 13 0.0 0.0 0.00 0.00 0.00 63 1011.0
20260509090050 13 0.0 0.0 0.00 0.00 0.00 63 1011.0
20260509084556 13 0.0 0.0 0.00 0.00 0.00 62 1011.3
20260509083047 13 0.0 0.0 0.00 0.00 0.00 62 1011.3
20260509081548 13 0.0 0.0 0.00 0.00 0.00 62 1011.5
20260509080050 13 0.0 0.0 0.00 0.00 0.00 62 1011.7
20260509074544 13 0.0 0.0 0.00 0.00 0.00 62 1011.9
20260509073048 13 0.0 0.0 0.00 0.00 0.00 61 1011.8
20260509071552 13 0.0 0.0 0.00 0.00 0.00 62 1011.8
20260509070052 13 0.0 0.0 0.00 0.00 0.00 62 1011.8
20260509064554 13 0.0 0.0 0.00 0.00 0.00 63 1012.0
20260509063045 13 0.0 0.0 0.00 0.00 0.00 64 1012.0
20260509061600 13 0.0 0.0 0.00 0.00 0.00 65 1012.2